{"data":{"norad_id":55945,"epoch":"2026-05-25T03:20:58.390944Z","epoch_age_seconds":62691,"freshness":"FRESH","line1":"1 55945U 23037AH  26145.13956471 -.00000660  00000+0 -47490-4 0  9998","line2":"2 55945  69.9997  91.6213 0003044 266.2333  93.8478 14.98335317175430","mean_motion":14.98335317,"eccentricity":0.0003044,"inclination_deg":69.9997,"raan_deg":91.6213,"arg_perigee_deg":266.2333,"mean_anomaly_deg":93.8478,"bstar":-4.749e-5,"rev_number":17543,"period_min":96.106658079928,"perigee_km":569.92381489818,"apogee_km":574.1550823201,"semimajor_km":6950.1764486091,"source":"CELESTRAK","updated_at":"2026-05-25T13:38:17.917203Z"}}